Location: Sevilla
(37.3933°N, 5.9839°W)
Time: 13:12:04
(UTC+02:00)

S-56A Canister/Altair - Pass Details

Date: 01 July 2024
Orbit: 638 x 2488 km, 38.9° (Epoch: 14 July)

Event Time Altitude Azimuth Distance (km) Brightness Sun altitude
Rises 00:59:44 0° 285° (WNW) 4,254 11.8 -26.1°
Reaches altitude 10° 01:02:13 10° 284° (WNW) 3,494 11.3 -26.2°
Maximum altitude 01:11:31 77° 201° (SSW) 1,899 9.2 -26.9°
Enters shadow 01:19:30 29° 121° (ESE) 3,417 10.4 -27.4°
